Location: Bastogne Gables
(35.1554°N, 78.9900°W)
Time: 02:32:44
(UTC+00:00)

Feng Yun 1-1 Rocket - Pass Details

Date: 29 October 2020
Orbit: 829 x 934 km, 99.2° (Epoch: 26 November)

Event Time Altitude Azimuth Distance (km) Brightness Sun altitude
Rises 23:25:50 0° 166° (SSE) 3,545 7.4 -13.2°
Reaches altitude 10° 23:28:14 10° 167° (SSE) 2,615 6.7 -13.7°
Maximum altitude 23:34:07 85° 256° (WSW) 941 4.5 -14.9°
Drops below altitude 10° 23:40:04 10° 345° (NNW) 2,647 6.9 -16.1°
Sets 23:42:30 0° 346° (NNW) 3,591 7.6 -16.6°
